Regional Weather Roundup
Issued by NWS

Home | Current Version | Previous Version | Text Only | Print | Product List | Glossary On
Versions: 1 2 3 4 5 6 7 8 9 10 11 12 13 14 15 16 17 18 19 20 21 22 23 24 25 26 27 28 29 30 31 32 33 34 35 36 37 38 39 40 41 42 43 44 45 46 47 48 49 50
000
ASUS43 KDTX 291201
RWRMI
MICHIGAN HOURLY REGIONAL WEATHER ROUNDUP
NATIONAL WEATHER SERVICE DETROIT/PONTIAC MI
800 AM EDT FRI MAY 29 2015

NOTE: "FAIR" INDICATES FEW OR NO CLOUDS BELOW 12,000 FEET WITH NO
SIGNIFICANT WEATHER AND/OR OBSTRUCTION TO VISIBILITY.

MIZ047>049-052>055-059>063-066>070-074>076-081>083-291300-
SOUTHEAST LOWER MICHIGAN

CITY           SKY/WX    TMP DP  RH WIND       PRES   REMARKS
ADRIAN         MOSUNNY   65  59  81 SE3       30.14F
6HR MIN TEMP:  60; 6HR MAX TEMP:  65;

ALMA           CLOUDY    63  57  82 SE5       30.11S
ANN ARBOR      MOSUNNY   66  59  78 VRB3      30.14F
BAD AXE        CLOUDY    64  52  65 S10       30.16S
CARO           CLOUDY    65  55  70 SE7       30.13F
DETROIT CITY   MOSUNNY   65  57  75 SE6       30.16S
6HR MIN TEMP:  60; 6HR MAX TEMP:  65;

DETROIT        CLOUDY    68  59  73 SE3       30.16S
6HR MIN TEMP:  63; 6HR MAX TEMP:  68; 6HR PCP: TRACE;

FLINT          PTSUNNY   68  56  65 S8        30.13F
6HR MIN TEMP:  62; 6HR MAX TEMP:  68;

GROSSE ILE     SUNNY     68  59  73 SE5       30.15R
HILLSDALE      MOSUNNY   65  61  87 SE7       30.13S
6HR MIN TEMP:  61; 6HR MAX TEMP:  65;

HOWELL         MOSUNNY   65  56  72 SE8       30.14S
6HR MIN TEMP:  60; 6HR MAX TEMP:  65;


CITY           SKY/WX    TMP DP  RH WIND       PRES   REMARKS
JACKSON        MOSUNNY   64  58  80 SE9       30.13F
6HR MIN TEMP:  58; 6HR MAX TEMP:  64;

LAMBERTVILLE   PTSUNNY   68  61  77 SE3       30.15S
LANSING        PTSUNNY   65  56  72 SE7       30.12F
6HR MIN TEMP:  62; 6HR MAX TEMP:  65;

LAPEER         PTSUNNY   65  54  66 S3        30.16S
MASON          PTSUNNY   62  57  83 S5        30.13S
MONROE         SUNNY     70  61  73 SE5       30.13S
MT. CLEMENS    PTSUNNY   63  59  87 E5        30.14F
6HR MIN TEMP:  58; 6HR MAX TEMP:  63;

PONTIAC        CLOUDY    65  55  70 SE6       30.15S
6HR MIN TEMP:  59; 6HR MAX TEMP:  65; 6HR PCP: TRACE;

PORT HOPE        N/A     66  52  60 S9G17     30.13F
6HR MIN TEMP:  60; 6HR MAX TEMP:  66;

PORT HURON     PTSUNNY   63  55  77 SE5       30.17F
TRI CITIES     CLOUDY    67  54  63 S12       30.12S
6HR MIN TEMP:  61; 6HR MAX TEMP:  67;

MIDLAND        FAIR      65  53  63 S8        30.10S
TROY           MOSUNNY   65  58  77 CALM      30.17F
SAGINAW HB     CLOUDY    66  54  63 S7        30.11S
$$
MIZ043>046-050>051-056>058-064>065-071>073-077>080-291300-
SOUTHWEST LOWER MICHIGAN

CITY           SKY/WX    TMP DP  RH WIND       PRES   REMARKS
BATTLE CREEK   PTSUNNY   66  59  78 SE5       30.12S
6HR MIN TEMP:  62; 6HR MAX TEMP:  67;

BENTON HARBOR  PTSUNNY   66  61  84 SE7       30.06S
6HR MIN TEMP:  63; 6HR MAX TEMP:  68;

BIG RAPIDS     CLOUDY    63  55  75 S5        30.08S
6HR MIN TEMP:  56; 6HR MAX TEMP:  63;

COLDWATER      PTSUNNY   64  59  82 SE5       30.12S
6HR MIN TEMP:  60; 6HR MAX TEMP:  64;

FREMONT        FAIR      65  58  76 S5        30.06S
6HR MIN TEMP:  63; 6HR MAX TEMP:  65;

HOLLAND        CLOUDY    66  59  78 SE6       30.07S
6HR MIN TEMP:  64; 6HR MAX TEMP:  67;

GRAND RAPIDS   CLOUDY    65  57  75 SE9       30.08F
6HR MIN TEMP:  62; 6HR MAX TEMP:  65;

IONIA          FAIR      64  56  75 S7        30.09F
KALAMAZOO      PTSUNNY   66  58  75 VRB5      30.10F
6HR MIN TEMP:  63; 6HR MAX TEMP:  67;

LUDINGTON      CLOUDY    70  61  72 SE5       30.03F
6HR MIN TEMP:  61; 6HR MAX TEMP:  70;

MARSHALL       PTSUNNY   65  59  80 CALM      30.12R
MOUNT PLEASANT CLOUDY    63  55  75 SE5       30.09F
6HR MIN TEMP:  58; 6HR MAX TEMP:  64;

MUSKEGON       PTSUNNY   68  58  70 SE10      30.05S
6HR MIN TEMP:  63; 6HR MAX TEMP:  68;

SOUTH HAVEN    CLOUDY    66  59  78 SE5       30.07S
$$
MIZ016>042-291300-
NORTHERN LOWER MICHIGAN

CITY           SKY/WX    TMP DP  RH WIND       PRES   REMARKS
ALPENA         PTSUNNY   64  55  72 SE5       30.11F
6HR MIN TEMP:  53; 6HR MAX TEMP:  64;

BEAVER ISLAND  CLOUDY    62  55  79 SE7       30.03F
6HR MIN TEMP:  53; 6HR MAX TEMP:  62;

BELLAIRE       CLOUDY    68  55  63 S8G16     30.05S
6HR MIN TEMP:  56; 6HR MAX TEMP:  68;

CADILLAC       CLOUDY    64  56  74 S7        30.08S
CHARLEVOIX     CLOUDY    63  57  79 SE7       30.06F
6HR MIN TEMP:  59; 6HR MAX TEMP:  63;

FRANKFORT      CLOUDY    69  54  58 S7        30.02S
GAYLORD        CLOUDY    63  55  75 S8        30.09F
6HR MIN TEMP:  60; 6HR MAX TEMP:  64;

GRAYLING       CLOUDY    62  54  75 SE3       30.09F
6HR MIN TEMP:  53; 6HR MAX TEMP:  64;

HARBOR SPRINGS CLOUDY    65  55  70 CALM      30.05F
HOUGHTON LAKE  CLOUDY    64  53  67 S10G18    30.10F
6HR MIN TEMP:  57; 6HR MAX TEMP:  64;

MANISTEE       CLOUDY    64  55  72 SE6       30.03F
OSCODA         PTSUNNY   61  54  78 SE5       30.13S
PELLSTON       CLOUDY    61  57  87 S3        30.06F
6HR MIN TEMP:  53; 6HR MAX TEMP:  61;

ROGERS CITY    PTSUNNY   66  56  70 S8        30.10F
TRAVERSE CITY  CLOUDY    66  56  70 VRB5      30.03F
6HR MIN TEMP:  56; 6HR MAX TEMP:  66;

$$
MIZ007>008-015-291300-
EASTERN UPPER MICHIGAN

CITY           SKY/WX    TMP DP  RH WIND       PRES   REMARKS
KINROSS        CLOUDY    55  54  94 SE9       30.06F
6HR MIN TEMP:  52; 6HR MAX TEMP:  55;

MACKINAC ISLAN CLOUDY    60  56  88 SE6       30.05F
6HR MIN TEMP:  44; 6HR MAX TEMP:  60;

NEWBERRY       PTSUNNY   62  57  83 S9        30.02F
6HR MIN TEMP:  53; 6HR MAX TEMP:  62;

S. S. MARIE    CLOUDY    54  51  90 E6        30.06F
6HR MIN TEMP:  52; 6HR MAX TEMP:  55;

$$
MIZ004>006-011>014-085-291300-
CENTRAL UPPER MICHIGAN

CITY           SKY/WX    TMP DP  RH WIND       PRES   REMARKS
MANISTIQUE     PTSUNNY   54  51  92 SE3       30.01F
6HR MIN TEMP:  50; 6HR MAX TEMP:  54;

ESCANABA       CLOUDY    57  54  88 SE3       29.98S
6HR MIN TEMP:  50; 6HR MAX TEMP:  59;

MENOMINEE      CLOUDY    64  54  68 S9        29.97F
6HR MIN TEMP:  63; 6HR MAX TEMP:  64;

$$
MIZ001>003-009>011-084-291300-
WESTERN UPPER MICHIGAN

CITY           SKY/WX    TMP DP  RH WIND       PRES   REMARKS
IRON MOUNTAIN  CLOUDY    59  55  87 SE5       29.96F
6HR MIN TEMP:  58; 6HR MAX TEMP:  63;

HOUGHTON       CLOUDY    62  55  77 SW8       29.91S
6HR MIN TEMP:  58; 6HR MAX TEMP:  62;

COPPER HARBOR    N/A     61  54  77 SW9       29.89F
6HR MIN TEMP:  59; 6HR MAX TEMP:  61;

IRONWOOD       CLOUDY    61  55  82 S7        29.87F
6HR MIN TEMP:  61; 6HR MAX TEMP:  68;

$$

ABBREVIATIONS USED IN REMARKS
   TC - TEMPERATURE IN CELSIUS
  WCI - WIND CHILL INDEX
   HX - HEAT INDEX
  VSB - VISIBILITY




USA.gov is the U.S. government's official web portal to all federal, state and local government web resources and services.